KA0TMW Weather Reports


time (UTC)temp
C
wind
direction
speed
KPH
gust
KPH
rain 1hr
cm
rain 24hr
cm
rain mn
cm
humidity
%
barometer
mb
20260502230045 16 104 9.7 19.3 0.00 0.00 0.00 36 1009.1
20260502224548 16 104 14.5 37.0 0.00 0.00 0.00 36 1009.2
20260502223048 16 105 22.5 33.8 0.00 0.00 0.00 35 1009.4
20260502221546 16 105 20.9 38.6 0.00 0.00 0.00 33 1009.6
20260502220048 16 101 14.5 33.8 0.00 0.00 0.00 33 1009.8
20260502214554 16 101 22.5 40.2 0.00 0.00 0.00 34 1009.8
20260502213049 17 108 22.5 40.2 0.00 0.00 0.00 31 1010.0
20260502211552 16 107 11.3 30.6 0.00 0.00 0.00 32 1010.2
20260502210050 16 107 16.1 29.0 0.00 0.00 0.00 31 1010.4
20260502204607 16 111 24.1 35.4 0.00 0.00 0.00 30 1010.6
20260502203110 16 105 19.3 32.2 0.00 0.00 0.00 30 1010.9
20260502201550 16 98 17.7 41.8 0.00 0.00 0.00 31 1011.1
20260502200049 16 107 22.5 37.0 0.00 0.00 0.00 31 1011.3
20260502194556 16 107 19.3 32.2 0.00 0.00 0.00 30 1011.6
20260502193056 16 107 11.3 35.4 0.00 0.00 0.00 30 1011.9
20260502191557 16 107 14.5 32.2 0.00 0.00 0.00 30 1012.1
20260502190051 15 122 16.1 29.0 0.00 0.00 0.00 31 1012.3
20260502184558 15 120 16.1 41.8 0.00 0.00 0.00 29 1012.7
20260502183054 15 163 12.9 22.5 0.00 0.00 0.00 30 1012.8
20260502181605 14 132 9.7 24.1 0.00 0.00 0.00 30 1013.2
20260502163043 12 126 17.7 30.6 0.00 0.00 0.00 34 1014.8
20260502161553 12 152 12.9 19.3 0.00 0.00 0.00 35 1014.9
20260502151605 10 200 12.9 19.3 0.00 0.00 0.00 35 1016.0
20260502140105 8 200 8.0 19.3 0.00 0.00 0.00 41 1016.5
20260502123052 0 200 4.8 8.0 0.00 0.00 0.00 90 1016.8
20260502121552 -1 200 6.4 11.3 0.00 0.00 0.00 92 1016.8
20260502114558 -3 200 6.4 8.0 0.00 0.00 0.00 92 1017.0
20260502113100 -4 200 6.4 9.7 0.00 0.00 0.00 91 1017.0
20260502111555 -4 200 6.4 11.3 0.00 0.00 0.00 91 1017.0
20260502110059 -4 200 8.0 12.9 0.00 0.00 0.00 90 1016.9
20260502104553 -4 200 8.0 12.9 0.00 0.00 0.00 90 1017.0
20260502103100 -4 200 6.4 11.3 0.00 0.00 0.00 90 1017.1
20260502101551 -3 200 6.4 9.7 0.00 0.00 0.00 89 1017.1
20260502080106 -3 200 8.0 11.3 0.00 0.00 0.00 88 1017.2
20260502070055 -2 200 6.4 9.7 0.00 0.00 0.00 86 1017.8
20260502064559 -2 200 4.8 6.4 0.00 0.00 0.00 86 1017.9
20260502063049 -2 200 1.6 3.2 0.00 0.00 0.00 83 1017.9
20260502061555 -2 200 0.0 3.2 0.00 0.00 0.00 84 1017.9
20260502060051 -2 0 0.0 1.6 0.00 0.00 0.00 83 1017.9
20260502054557 -2 0 1.6 6.4 0.00 0.00 0.00 84 1018.0
20260502053052 -2 200 3.2 6.4 0.00 0.00 0.00 82 1018.0
20260502051549 -1 200 3.2 4.8 0.00 0.00 0.00 81 1018.0
20260502050050 -1 200 3.2 4.8 0.00 0.00 0.00 80 1017.9
20260502044549 -1 200 3.2 4.8 0.00 0.00 0.00 79 1017.9
20260502043050 -1 200 3.2 6.4 0.00 0.00 0.00 78 1017.9
20260502041549 -1 200 1.6 6.4 0.00 0.00 0.00 77 1017.8
20260502040058 0 200 0.0 4.8 0.00 0.00 0.00 76 1017.9
20260502034554 0 200 1.6 3.2 0.00 0.00 0.00 75 1018.0
20260502033050 0 0 0.0 3.2 0.00 0.00 0.00 73 1018.0
20260502031557 0 200 1.6 4.8 0.00 0.00 0.00 71 1018.0
20260502030051 0 200 3.2 4.8 0.00 0.00 0.00 67 1018.0
20260502024547 1 200 1.6 4.8 0.00 0.00 0.00 63 1018.0
20260502023057 2 200 1.6 3.2 0.00 0.00 0.00 61 1018.0
20260502021552 2 200 0.0 4.8 0.00 0.00 0.00 58 1017.9
20260502020110 3 200 1.6 4.8 0.00 0.00 0.00 53 1017.9
20260502014554 4 200 1.6 6.4 0.00 0.00 0.00 52 1017.8
20260502013050 5 200 4.8 9.7 0.00 0.00 0.00 47 1017.7
20260502011553 6 200 8.0 9.7 0.00 0.00 0.00 46 1017.6
20260502010049 6 200 6.4 9.7 0.00 0.00 0.00 45 1017.5
20260502004553 6 200 6.4 11.3 0.00 0.00 0.00 44 1017.4
20260502003054 6 200 6.4 11.3 0.00 0.00 0.00 45 1017.3
20260502001624 7 200 4.8 11.3 0.00 0.00 0.00 43 1017.3
20260502000051 7 200 4.8 12.9 0.00 0.00 0.00 43 1017.1
20260501234547 7 200 8.0 12.9 0.00 0.00 0.00 42 1017.1
20260501233050 7 200 8.0 14.5 0.00 0.00 0.00 42 1017.3
20260501231550 7 200 9.7 12.9 0.00 0.00 0.00 42 1017.1